PORTS® Data Listing: 8770613 Morgans Point, Barbours Cut, TX

CO-OPS RAW PORTS DATA

************************      PRELIMINARY DATA      ************************** 

     THIS RAW DATA HAS NOT BEEN SUBJECT TO THE NATIONAL OCEAN SERVICE'S        
     QUALITY CONTROL OR QUALITY ASSURANCE PROCEDURES AND DOES NOT MEET         
     THE CRITERIA AND STANDARDS OF OFFICIAL NATIONAL OCEAN SERVICE             
     DATA.  IT IS RELEASED FOR LIMITED PUBLIC USE AS PRELIMINARY DATA TO       
     BE USED ONLY WITH APPROPRIATE CAUTION.                                    

************************      PRELIMINARY DATA      ************************** 


       CD   -   Calendar date
       T    -   Time
       TZ   -   Timezone
       PW   -   Predicted water level (feet above MLLW)
       OW   -   Observed water level (feet above MLLW)
       WS   -   Wind speed (knots)
       WD   -   Wind direction (degrees true)
       WG   -   Wind gust (knots)
       AT   -   Air temperature (degrees farenheit)
       WT   -   Water temperature (degrees farenheit)
       AP   -   Air pressure (millibars)
       SA   -   Salinty (PSU - Practical Salinity Units)
       SG   -   Specific gravity
       RH   -   Relative humidity
       AG   -   Air gap (feet)
       VI   -   Visibility (nautical miles)

       ** NOTE **
       A variable that has its data fields filled with "9"s, indicates that
       data was not collected for that sample period.
       **********


STATION NAME: Morgans Point (8770613)
****************************************************************************************************
    CD       T    TZ    PW     OW    WS   WD   WG    AT    WT    AP    SA    SG     RH    AG   VI
****************************************************************************************************
2019/12/13 03:24 CST    1.10   2.19    5  109    6  56.5  62.6 1016.0 17.3  1.013 -99.9 -99.99 -9.99
2019/12/13 03:30 CST    1.10   2.19    4  111    6  56.5  62.6 1016.0 17.3  1.013 -99.9 -99.99 -9.99
2019/12/13 03:36 CST    1.09   2.19    5  113    6  56.5  62.6 1015.9 17.3  1.013 -99.9 -99.99 -9.99
2019/12/13 03:42 CST    1.09   2.17    5  116    6  56.7  62.6 1015.8 17.3  1.013 -99.9 -99.99 -9.99
2019/12/13 03:48 CST    1.08   2.11    5  119    5  56.8  62.6 1015.6 17.3  1.013 -99.9 -99.99 -9.99
2019/12/13 03:54 CST    1.08   2.13    3  120    6  56.8  62.6 1015.5 17.4  1.013 -99.9 -99.99 -9.99
2019/12/13 04:00 CST    1.07   2.11    4  113    5  56.7  62.6 1015.3 17.4  1.013 -99.9 -99.99 -9.99
2019/12/13 04:06 CST    1.07   2.14    5  109    6  56.5  62.6 1015.1 17.4  1.013 -99.9 -99.99 -9.99
2019/12/13 04:12 CST    1.06   2.18    4  110    5  56.5  62.6 1015.1 17.4  1.013 -99.9 -99.99 -9.99
2019/12/13 04:18 CST    1.06   2.13    4  108    5  56.5  62.6 1015.1 16.3  1.012 -99.9 -99.99 -9.99
2019/12/13 04:24 CST    1.05   2.14    3  116    5  56.5  62.6 1015.1 17.4  1.013 -99.9 -99.99 -9.99
2019/12/13 04:30 CST    1.05   2.17    3  115    4  56.5  62.6 1015.0 17.4  1.013 -99.9 -99.99 -9.99
2019/12/13 04:36 CST    1.04   2.07    3  116    3  56.7  62.6 1015.0 17.3  1.013 -99.9 -99.99 -9.99
2019/12/13 04:42 CST    1.04   2.12    3  125    4  56.8  62.6 1015.0 17.3  1.013 -99.9 -99.99 -9.99
2019/12/13 04:48 CST    1.03   2.13    3  130    4  57.0  62.6 1015.0 17.3  1.013 -99.9 -99.99 -9.99
2019/12/13 04:54 CST    1.02   2.10    2  143    5  57.2  62.6 1015.0 17.3  1.013 -99.9 -99.99 -9.99
2019/12/13 05:00 CST    1.02   2.07    2  123    4  57.4  62.6 1014.9 17.4  1.013 -99.9 -99.99 -9.99
2019/12/13 05:06 CST    1.01   2.09    2  129    3  57.6  62.6 1014.9 17.4  1.013 -99.9 -99.99 -9.99
2019/12/13 05:12 CST    1.00   2.07    2  120    3  57.4  62.6 1014.8 17.4  1.013 -99.9 -99.99 -9.99
2019/12/13 05:18 CST    1.00   2.04    2  121    4  57.4  62.6 1014.8 17.4  1.013 -99.9 -99.99 -9.99
2019/12/13 05:24 CST    0.99   1.98    3  123    4  57.4  62.6 1014.7 17.4  1.013 -99.9 -99.99 -9.99
2019/12/13 05:30 CST    0.98   1.99    3  115    4  57.4  62.6 1014.5 17.4  1.013 -99.9 -99.99 -9.99
2019/12/13 05:36 CST    0.97   1.99    3  124    4  57.4  62.6 1014.6 17.4  1.013 -99.9 -99.99 -9.99
2019/12/13 05:42 CST    0.96   1.99    2  106    4  57.4  62.6 1014.6 17.4  1.013 -99.9 -99.99 -9.99
2019/12/13 05:48 CST    0.95   1.85    2   94    2  57.6  62.6 1014.6 17.4  1.013 -99.9 -99.99 -9.99
2019/12/13 05:54 CST    0.94   1.81    1   72    2  57.6  62.6 1014.8 17.3  1.013 -99.9 -99.99 -9.99
2019/12/13 06:00 CST    0.93   1.91    2   16    2  57.6  62.4 1014.8 17.3  1.013 -99.9 -99.99 -9.99
2019/12/13 06:06 CST    0.91   1.86    2   23    3  57.4  62.4 1014.6 17.3  1.013 -99.9 -99.99 -9.99
2019/12/13 06:12 CST    0.90   1.93    2  356    3  57.4  62.4 1014.8 17.2  1.013 -99.9 -99.99 -9.99
2019/12/13 06:18 CST    0.89   1.92    3    2    4  57.4  62.2 1015.0 17.3  1.013 -99.9 -99.99 -9.99
2019/12/13 06:24 CST    0.88   1.83    2  359    3  57.6  62.4 1015.2 17.2  1.013 -99.9 -99.99 -9.99
2019/12/13 06:30 CST    0.86   1.83    3    1    4  57.6  62.4 1015.3 17.3  1.013 -99.9 -99.99 -9.99
2019/12/13 06:36 CST    0.85   1.84    3   11    3  57.6  62.4 1015.2 17.3  1.013 -99.9 -99.99 -9.99
2019/12/13 06:42 CST    0.84   1.79    1   38    3  57.6  62.4 1014.9 17.3  1.013 -99.9 -99.99 -9.99
2019/12/13 06:48 CST    0.82   1.79    1   70    1  57.6  62.4 1014.8 17.3  1.013 -99.9 -99.99 -9.99
2019/12/13 06:54 CST    0.81   1.79    1   73    2  57.6  62.4 1014.9 17.2  1.013 -99.9 -99.99 -9.99
2019/12/13 07:00 CST    0.79   1.79    3    3    4  57.6  62.4 1015.1 17.2  1.013 -99.9 -99.99 -9.99
2019/12/13 07:06 CST    0.78   1.80    2  352    4  57.4  62.4 1015.2 17.2  1.013 -99.9 -99.99 -9.99
2019/12/13 07:12 CST    0.76   1.77    2  348    3  57.4  62.2 1015.2 17.2  1.013 -99.9 -99.99 -9.99
2019/12/13 07:18 CST    0.74   1.73    2   22    3  57.2  62.2 1015.0 17.2  1.013 -99.9 -99.99 -9.99
2019/12/13 07:24 CST    0.73   1.72    2    8    2  57.0  62.2 1015.1 17.1  1.013 -99.9 -99.99 -9.99
2019/12/13 07:30 CST    0.71   1.71    1  348    2  57.0  62.2 1015.1 17.1  1.013 -99.9 -99.99 -9.99
2019/12/13 07:36 CST    0.69   1.69    0   50    2  57.2  62.2 1015.0 17.1  1.013 -99.9 -99.99 -9.99
2019/12/13 07:42 CST    0.67   1.68    1   48    1  57.4  62.1 1015.1 17.2  1.013 -99.9 -99.99 -9.99
2019/12/13 07:48 CST    0.66   1.63    1   50    1  57.6  62.1 1015.0 17.2  1.013 -99.9 -99.99 -9.99
2019/12/13 07:54 CST    0.64   1.59    2   33    2  57.6  62.1 1015.2 17.2  1.013 -99.9 -99.99 -9.99
2019/12/13 08:00 CST    0.62   1.57    2   81    3  57.9  62.1 1015.0 17.1  1.013 -99.9 -99.99 -9.99
2019/12/13 08:06 CST    0.60   1.58    2   71    3  57.9  62.1 1015.2 17.1  1.013 -99.9 -99.99 -9.99
2019/12/13 08:12 CST    0.58   1.55    3   22    3  57.7  62.1 1015.2 17.1  1.013 -99.9 -99.99 -9.99
2019/12/13 08:18 CST    0.56   1.51    2  353    3  57.9  62.1 1015.3 17.1  1.013 -99.9 -99.99 -9.99
2019/12/13 08:24 CST    0.53   1.48    1  350    2  58.1  62.1 1015.2 17.0  1.013 -99.9 -99.99 -9.99
2019/12/13 08:30 CST    0.51   1.46    0   11    1  59.2  61.9 1015.1 17.1  1.013 -99.9 -99.99 -9.99
2019/12/13 08:36 CST    0.49   1.45    0   11    0  59.4  61.9 1015.1 17.0  1.013 -99.9 -99.99 -9.99
2019/12/13 08:42 CST    0.47   1.45    0   54    1  59.5  61.9 1015.0 16.9  1.013 -99.9 -99.99 -9.99
2019/12/13 08:48 CST    0.45   1.31    0   35    0  59.7  61.9 1015.0 16.9  1.013 -99.9 -99.99 -9.99
2019/12/13 08:54 CST    0.42   1.31    0   50    0  60.4  61.9 1014.8 16.8  1.013 -99.9 -99.99 -9.99
2019/12/13 09:00 CST    0.40   1.30    2  122    3  60.4  61.9 1014.7 16.8  1.013 -99.9 -99.99 -9.99
2019/12/13 09:06 CST    0.38   1.31    2  127    3  60.3  61.9 1014.5 16.7  1.013 -99.9 -99.99 -9.99
2019/12/13 09:12 CST    0.36   1.24    2  170    3  60.6  61.9 1014.5 16.7  1.013 -99.9 -99.99 -9.99
2019/12/13 09:18 CST    0.33   1.33    3  173    4  60.3  61.9 1014.6 16.7  1.013 -99.9 -99.99 -9.99
2019/12/13 09:24 CST    0.31   1.24    2  173    3  61.3  61.9 1014.5 16.7  1.013 -99.9 -99.99 -9.99
2019/12/13 09:30 CST    0.29   1.25    2  172    4  61.5  61.9 1014.5 16.7  1.013 -99.9 -99.99 -9.99
2019/12/13 09:36 CST    0.26   1.16    3  172    4  61.7  61.9 1014.5 16.7  1.013 -99.9 -99.99 -9.99
2019/12/13 09:42 CST    0.24   1.15    2  165    5  62.2  61.9 1014.5 16.7  1.013 -99.9 -99.99 -9.99
2019/12/13 09:48 CST    0.22   1.14    2  189    3  61.9  61.9 1014.6 16.7  1.013 -99.9 -99.99 -9.99
2019/12/13 09:54 CST    0.19   1.22    4  192    4  62.2  61.9 1014.7 16.7  1.013 -99.9 -99.99 -9.99
2019/12/13 10:00 CST    0.17   1.04    3  164    5  62.4  61.9 1014.3 16.7  1.013 -99.9 -99.99 -9.99
2019/12/13 10:06 CST    0.15   1.12    4  166    5  62.2  61.9 1014.0 16.8  1.013 -99.9 -99.99 -9.99
2019/12/13 10:12 CST    0.12   1.03    4  148    6  62.2  61.9 1014.0 16.8  1.013 -99.9 -99.99 -9.99
2019/12/13 10:18 CST    0.10   1.06    4  156    6  62.1  61.9 1013.8 16.8  1.013 -99.9 -99.99 -9.99
2019/12/13 10:24 CST    0.07   1.11    3  180    6  61.9  61.9 1013.8 16.8  1.013 -99.9 -99.99 -9.99
2019/12/13 10:30 CST    0.05   1.15    3  152    4  62.1  61.9 1013.7 16.8  1.013 -99.9 -99.99 -9.99
2019/12/13 10:36 CST    0.03   0.70    4  162    6  62.4  61.9 1013.7 16.7  1.013 -99.9 -99.99 -9.99
2019/12/13 10:42 CST    0.00   1.03    4  141    6  62.8  61.9 1013.5 16.6  1.012 -99.9 -99.99 -9.99
2019/12/13 10:48 CST   -0.02   0.81    5  137    6  62.6  62.1 1013.2 16.6  1.012 -99.9 -99.99 -9.99
2019/12/13 10:54 CST   -0.05   0.83    5  131    6  62.2  62.1 1013.1 16.5  1.012 -99.9 -99.99 -9.99
2019/12/13 11:00 CST   -0.07   1.04    2  118    6  62.6  62.1 1013.3 16.5  1.012 -99.9 -99.99 -9.99
2019/12/13 11:06 CST   -0.10   0.93    2  137    4  63.9  62.1 1013.2 16.5  1.012 -99.9 -99.99 -9.99
2019/12/13 11:12 CST   -0.12   0.80    2   64    3  63.1  62.1 1013.4 16.5  1.012 -99.9 -99.99 -9.99
2019/12/13 11:18 CST   -0.14   0.76    1   25    3  62.4  62.1 1013.4 16.4  1.012 -99.9 -99.99 -9.99
2019/12/13 11:24 CST   -0.17   0.78    1   88    2  62.6  62.1 1013.2 16.4  1.012 -99.9 -99.99 -9.99
2019/12/13 11:30 CST   -0.19   0.79    2   78    2  63.0  62.1 1013.3 16.4  1.012 -99.9 -99.99 -9.99
2019/12/13 11:36 CST   -0.22   0.79    0   28    2  64.0  62.1 1013.2 16.4  1.012 -99.9 -99.99 -9.99
2019/12/13 11:42 CST   -0.24   0.76    2  109    3  65.1  62.1 1013.0 16.3  1.012 -99.9 -99.99 -9.99
2019/12/13 11:48 CST   -0.26   0.74    2  123    3  66.2  62.1 1012.7 16.3  1.012 -99.9 -99.99 -9.99
2019/12/13 11:54 CST   -0.28   0.71    2  117    2  66.6  62.1 1012.7 16.3  1.012 -99.9 -99.99 -9.99
2019/12/13 12:00 CST   -0.31   0.71    4  139    5  67.5  62.1 1012.6 16.2  1.012 -99.9 -99.99 -9.99
2019/12/13 12:06 CST   -0.33   0.67    4  139    5  67.3  62.1 1012.3 16.2  1.012 -99.9 -99.99 -9.99
2019/12/13 12:12 CST   -0.35   0.69    4  134    5  67.6  62.1 1011.9 16.2  1.012 -99.9 -99.99 -9.99
2019/12/13 12:18 CST   -0.37   0.68    5  145    6  68.0  62.1 1011.7 16.2  1.012 -99.9 -99.99 -9.99
2019/12/13 12:24 CST   -0.39   0.69    5  136    6  67.6  62.2 1011.5 16.1  1.012 -99.9 -99.99 -9.99
2019/12/13 12:30 CST   -0.41   0.59    5  139    6  67.5  62.2 1011.2 16.0  1.012 -99.9 -99.99 -9.99
2019/12/13 12:36 CST   -0.42   0.55    4  151    6  67.3  62.2 1011.1 16.0  1.012 -99.9 -99.99 -9.99
2019/12/13 12:42 CST   -0.44   0.57    4  152    6  67.6  62.1 1010.9 16.0  1.012 -99.9 -99.99 -9.99
2019/12/13 12:48 CST   -0.46   0.62    4  153    6  67.6  62.2 1010.8 15.8  1.012 -99.9 -99.99 -9.99
2019/12/13 12:54 CST   -0.47   0.59    5  142    6  68.0  62.2 1010.5 15.8  1.012 -99.9 -99.99 -9.99
2019/12/13 13:00 CST   -0.48   0.38    4  142    5  67.6  62.2 1010.3 15.8  1.012 -99.9 -99.99 -9.99
2019/12/13 13:06 CST   -0.50   0.42    5  137    8  66.9  62.2 1010.3 15.8  1.012 -99.9 -99.99 -9.99
2019/12/13 13:12 CST   -0.51   0.55    3  138    8  68.9  62.2 1010.2 15.8  1.012 -99.9 -99.99 -9.99
2019/12/13 13:18 CST   -0.52   0.51    7  202   10  71.2  62.2 1009.9 15.8  1.012 -99.9 -99.99 -9.99
2019/12/13 13:24 CST   -0.53   0.54   10  223   14  72.0  62.2 1009.9 15.8  1.012 -99.9 -99.99 -9.99
2019/12/13 13:30 CST   -0.54   0.47    6  201   14  72.1  62.2 1009.6 15.8  1.012 -99.9 -99.99 -9.99
2019/12/13 13:36 CST   -0.55   0.44    6  212   11  72.0  62.2 1009.6 15.8  1.012 -99.9 -99.99 -9.99
2019/12/13 13:42 CST   -0.56   0.50    7  204   10  72.0  62.2 1009.5 15.8  1.012 -99.9 -99.99 -9.99
2019/12/13 13:48 CST   -0.57   0.47    6  209   11  72.1  62.4 1009.2 15.8  1.012 -99.9 -99.99 -9.99
2019/12/13 13:54 CST   -0.57   0.41    6  200    9  72.0  62.4 1008.9 15.8  1.012 -99.9 -99.99 -9.99
2019/12/13 14:00 CST   -0.58   0.46    4  223   11  72.7  62.2 1008.7 15.8  1.012 -99.9 -99.99 -9.99
2019/12/13 14:06 CST   -0.58   0.51   10  243   13  72.1  62.2 1008.5 15.9  1.012 -99.9 -99.99 -9.99
2019/12/13 14:12 CST   -0.59   0.39    9  245   12  72.5  62.2 1008.7 15.9  1.012 -99.9 -99.99 -9.99
2019/12/13 14:18 CST   -0.59   0.45   10  240   12  73.0  62.2 1008.8 15.8  1.012 -99.9 -99.99 -9.99
2019/12/13 14:24 CST   -0.59   0.36   10  246   15  73.4  62.2 1008.9 15.8  1.012 -99.9 -99.99 -9.99
2019/12/13 14:30 CST   -0.59   0.36    9  236   14  73.4  62.2 1008.6 15.9  1.012 -99.9 -99.99 -9.99
2019/12/13 14:36 CST   -0.59   0.45    9  242   13  73.2  62.2 1008.4 15.8  1.012 -99.9 -99.99 -9.99
2019/12/13 14:42 CST   -0.59   0.37   11  229   15  73.4  62.2 1008.3 15.8  1.012 -99.9 -99.99 -9.99
2019/12/13 14:48 CST   -0.59   0.39   12  233   16  73.8  62.2 1008.4 15.8  1.012 -99.9 -99.99 -9.99
2019/12/13 14:54 CST   -0.59   0.41    6  238   15  73.9  62.4 1008.4 15.7  1.012 -99.9 -99.99 -9.99
2019/12/13 15:00 CST   -0.59   0.43   10  247   12  73.9  62.4 1008.5 15.7  1.012 -99.9 -99.99 -9.99
2019/12/13 15:06 CST   -0.58   0.38   12  242   17  73.9  62.4 1008.4 15.7  1.012 -99.9 -99.99 -9.99
2019/12/13 15:12 CST   -0.58   0.37   11  252   19  74.1  62.4 1008.4 15.7  1.012 -99.9 -99.99 -9.99
2019/12/13 15:18 CST   -0.57   0.43   11  252   17  73.9  62.4 1008.3 15.7  1.012 -99.9 -99.99 -9.99
2019/12/13 15:24 CST   -0.56   0.62   10  248   17  74.1  62.4 1008.5 15.7  1.012 -99.9 -99.99 -9.99
2019/12/13 15:30 CST   -0.55   0.50   14  260   17  73.9  62.4 1008.2 15.7  1.012 -99.9 -99.99 -9.99
2019/12/13 15:36 CST   -0.54   0.37   10  264   16  73.8  62.4 1008.3 15.7  1.012 -99.9 -99.99 -9.99
2019/12/13 15:42 CST   -0.53   0.20   11  241   15  74.1  62.4 1008.1 15.7  1.012 -99.9 -99.99 -9.99
2019/12/13 15:48 CST   -0.52   0.39    8  269   16  73.4  62.4 1008.4 15.7  1.012 -99.9 -99.99 -9.99
2019/12/13 15:54 CST   -0.51   0.48   11  254   14  73.6  62.6 1008.3 15.6  1.012 -99.9 -99.99 -9.99
2019/12/13 16:00 CST   -0.49   0.54    9  248   13  73.8  62.6 1008.3 15.6  1.012 -99.9 -99.99 -9.99
2019/12/13 16:06 CST   -0.47   0.37   11  245   16  73.8  62.6 1008.3 15.6  1.012 -99.9 -99.99 -9.99
2019/12/13 16:12 CST   -0.46   0.44   12  251   16  73.8  62.6 1008.2 14.7  1.011 -99.9 -99.99 -9.99
2019/12/13 16:18 CST   -0.44   0.43    8  273   13  73.2  62.6 1008.3 14.7  1.011 -99.9 -99.99 -9.99
2019/12/13 16:24 CST   -0.42   0.55    9  276   13  72.9  62.6 1008.3 14.7  1.011 -99.9 -99.99 -9.99
2019/12/13 16:30 CST   -0.40   0.61    7  264   11  73.4  62.6 1008.2 14.8  1.011 -99.9 -99.99 -9.99
2019/12/13 16:36 CST   -0.38   0.63    9  259   13  73.2  62.6 1008.3 14.7  1.011 -99.9 -99.99 -9.99
2019/12/13 16:42 CST   -0.35   0.62   10  249   16  73.0  62.6 1008.4 14.7  1.011 -99.9 -99.99 -9.99
2019/12/13 16:48 CST   -0.33   0.59    9  252   12  73.0  62.6 1008.3 15.0  1.011 -99.9 -99.99 -9.99
2019/12/13 16:54 CST   -0.30   0.68    6  268   11  72.5  62.6 1008.4 14.8  1.011 -99.9 -99.99 -9.99
2019/12/13 17:00 CST   -0.28   0.66    6  266   10  72.1  62.6 1008.4 14.9  1.011 -99.9 -99.99 -9.99
2019/12/13 17:06 CST   -0.25   0.72    7  275   11  71.4  62.4 1008.4 14.9  1.011 -99.9 -99.99 -9.99
2019/12/13 17:12 CST   -0.23   0.79    5  269   10  71.8  62.4 1008.5 15.0  1.011 -99.9 -99.99 -9.99
2019/12/13 17:18 CST   -0.20   0.71    9  276   11  71.2  62.4 1008.6 15.0  1.011 -99.9 -99.99 -9.99
2019/12/13 17:24 CST   -0.17   0.69    9  281   11  70.0  62.4 1008.8 15.1  1.011 -99.9 -99.99 -9.99
2019/12/13 17:30 CST   -0.15   0.74    8  274   11  70.5  62.6 1008.9 15.4  1.011 -99.9 -99.99 -9.99
2019/12/13 17:36 CST   -0.12   0.89    9  273   11  70.3  62.4 1009.0 15.0  1.011 -99.9 -99.99 -9.99
2019/12/13 17:42 CST   -0.09   0.85    8  274   12  70.2  62.4 1008.7 15.0  1.011 -99.9 -99.99 -9.99
2019/12/13 17:48 CST   -0.06   0.84    8  281   10  69.1  62.6 1008.9 15.0  1.011 -99.9 -99.99 -9.99
2019/12/13 17:54 CST   -0.03   0.77    7  289    8  69.3  62.6 1008.9 14.9  1.011 -99.9 -99.99 -9.99
2019/12/13 18:00 CST   -0.00   0.82    7  293   11  69.1  62.6 1009.0 15.0  1.011 -99.9 -99.99 -9.99
2019/12/13 18:06 CST    0.03   0.90    6  295    9  68.5  62.4 1009.1 15.5  1.012 -99.9 -99.99 -9.99
2019/12/13 18:12 CST    0.06   0.95    7  295    9  68.7  62.4 1009.1 16.0  1.012 -99.9 -99.99 -9.99
2019/12/13 18:18 CST    0.09   0.91    6  295    9  68.5  62.4 1009.2 16.0  1.012 -99.9 -99.99 -9.99
2019/12/13 18:24 CST    0.12   0.99    7  304   10  68.2  62.6 1009.3 15.9  1.012 -99.9 -99.99 -9.99
2019/12/13 18:30 CST    0.14   1.01    8  304   11  68.9  62.6 1009.3 15.9  1.012 -99.9 -99.99 -9.99
2019/12/13 18:36 CST    0.17   1.05    7  301   10  67.8  62.6 1009.4 15.9  1.012 -99.9 -99.99 -9.99
2019/12/13 18:42 CST    0.20   1.09    7  298    8  67.6  62.6 1009.5 15.8  1.012 -99.9 -99.99 -9.99
2019/12/13 18:48 CST    0.23   1.10    6  293    8  68.0  62.6 1009.6 15.9  1.012 -99.9 -99.99 -9.99
2019/12/13 18:54 CST    0.26   1.12    6  301   10  66.7  62.6 1009.7 15.9  1.012 -99.9 -99.99 -9.99
2019/12/13 19:00 CST    0.29   1.18    5  294    6  66.2  62.6 1009.8 15.9  1.012 -99.9 -99.99 -9.99
2019/12/13 19:06 CST    0.32   1.21    5  299    6  66.0  62.6 1009.9 15.9  1.012 -99.9 -99.99 -9.99
2019/12/13 19:12 CST    0.35   1.31    5  301    6  65.7  62.6 1009.9 16.0  1.012 -99.9 -99.99 -9.99
2019/12/13 19:18 CST    0.38   1.36    5  309    6  65.5  62.6 1010.0 16.0  1.012 -99.9 -99.99 -9.99
2019/12/13 19:24 CST    0.41   1.21    4  295    5  65.3  62.6 1010.0 16.2  1.012 -99.9 -99.99 -9.99
2019/12/13 19:30 CST    0.44   1.30    5  303    5  65.3  62.6 1010.0 16.1  1.012 -99.9 -99.99 -9.99
2019/12/13 19:36 CST    0.47   1.38    4  302    5  64.9  62.4 1009.9 16.2  1.012 -99.9 -99.99 -9.99
2019/12/13 19:42 CST    0.50   1.43    5  295    5  65.1  62.4 1009.9 16.3  1.012 -99.9 -99.99 -9.99
2019/12/13 19:48 CST    0.53   1.49    5  292    5  64.8  62.4 1010.0 16.4  1.012 -99.9 -99.99 -9.99
2019/12/13 19:54 CST    0.56   1.52    5  291    5  64.9  62.4 1010.0 16.4  1.012 -99.9 -99.99 -9.99
2019/12/13 20:00 CST    0.59   1.34    5  292    5  64.8  62.4 1010.2 16.3  1.012 -99.9 -99.99 -9.99
2019/12/13 20:06 CST    0.62   1.44    5  285    5  64.9  62.4 1010.3 16.4  1.012 -99.9 -99.99 -9.99
2019/12/13 20:12 CST    0.64   1.55    4  285    5  65.5  62.4 1010.3 16.6  1.012 -99.9 -99.99 -9.99
2019/12/13 20:18 CST    0.67   1.62    4  282    5  65.5  62.4 1010.4 16.8  1.012 -99.9 -99.99 -9.99
2019/12/13 20:24 CST    0.70   1.65    4  291    5  65.3  62.4 1010.6 16.8  1.012 -99.9 -99.99 -9.99
2019/12/13 20:30 CST    0.72   1.62    3  284    4  64.8  62.4 1010.7 16.8  1.012 -99.9 -99.99 -9.99
2019/12/13 20:36 CST    0.75   1.58    4  286    4  65.1  62.4 1010.8 16.8  1.012 -99.9 -99.99 -9.99
2019/12/13 20:42 CST    0.77   1.74    3  282    4  65.3  62.4 1010.8 16.7  1.012 -99.9 -99.99 -9.99
2019/12/13 20:48 CST    0.80   1.66    2  276    4  64.9  62.4 1010.7 16.8  1.012 -99.9 -99.99 -9.99
2019/12/13 20:54 CST    0.82   1.70    3  279    3  64.9  62.4 1010.7 16.8  1.012 -99.9 -99.99 -9.99
2019/12/13 21:00 CST    0.85   1.73    4  285    4  64.8  62.4 1010.7 16.8  1.013 -99.9 -99.99 -9.99
2019/12/13 21:06 CST    0.87   1.76    4  299    4  64.8  62.4 1010.7 16.8  1.013 -99.9 -99.99 -9.99
2019/12/13 21:12 CST    0.89   1.73    4  290    4  64.4  62.4 1010.8 16.8  1.013 -99.9 -99.99 -9.99
2019/12/13 21:18 CST    0.91 -99.99 -999 -999 -999 -99.9 -99.9 -999.9 -9.9 -9.999 -99.9 -99.99 -9.99
2019/12/13 21:24 CST    0.93 -99.99 -999 -999 -999 -99.9 -99.9 -999.9 -9.9 -9.999 -99.9 -99.99 -9.99
2019/12/13 21:30 CST    0.96 -99.99 -999 -999 -999 -99.9 -99.9 -999.9 -9.9 -9.999 -99.9 -99.99 -9.99
2019/12/13 21:36 CST    0.98 -99.99 -999 -999 -999 -99.9 -99.9 -999.9 -9.9 -9.999 -99.9 -99.99 -9.99
2019/12/13 21:42 CST    0.99 -99.99 -999 -999 -999 -99.9 -99.9 -999.9 -9.9 -9.999 -99.9 -99.99 -9.99
2019/12/13 21:48 CST    1.01 -99.99 -999 -999 -999 -99.9 -99.9 -999.9 -9.9 -9.999 -99.9 -99.99 -9.99
2019/12/13 21:54 CST    1.03 -99.99 -999 -999 -999 -99.9 -99.9 -999.9 -9.9 -9.999 -99.9 -99.99 -9.99
2019/12/13 22:00 CST    1.05 -99.99 -999 -999 -999 -99.9 -99.9 -999.9 -9.9 -9.999 -99.9 -99.99 -9.99
2019/12/13 22:06 CST    1.07 -99.99 -999 -999 -999 -99.9 -99.9 -999.9 -9.9 -9.999 -99.9 -99.99 -9.99
2019/12/13 22:12 CST    1.08 -99.99 -999 -999 -999 -99.9 -99.9 -999.9 -9.9 -9.999 -99.9 -99.99 -9.99
2019/12/13 22:18 CST    1.10 -99.99 -999 -999 -999 -99.9 -99.9 -999.9 -9.9 -9.999 -99.9 -99.99 -9.99
2019/12/13 22:24 CST    1.11 -99.99 -999 -999 -999 -99.9 -99.9 -999.9 -9.9 -9.999 -99.9 -99.99 -9.99
2019/12/13 22:30 CST    1.13 -99.99 -999 -999 -999 -99.9 -99.9 -999.9 -9.9 -9.999 -99.9 -99.99 -9.99
2019/12/13 22:36 CST    1.14 -99.99 -999 -999 -999 -99.9 -99.9 -999.9 -9.9 -9.999 -99.9 -99.99 -9.99
2019/12/13 22:42 CST    1.15 -99.99 -999 -999 -999 -99.9 -99.9 -999.9 -9.9 -9.999 -99.9 -99.99 -9.99
2019/12/13 22:48 CST    1.16 -99.99 -999 -999 -999 -99.9 -99.9 -999.9 -9.9 -9.999 -99.9 -99.99 -9.99
2019/12/13 22:54 CST    1.17 -99.99 -999 -999 -999 -99.9 -99.9 -999.9 -9.9 -9.999 -99.9 -99.99 -9.99
2019/12/13 23:00 CST    1.18 -99.99 -999 -999 -999 -99.9 -99.9 -999.9 -9.9 -9.999 -99.9 -99.99 -9.99
2019/12/13 23:06 CST    1.19 -99.99 -999 -999 -999 -99.9 -99.9 -999.9 -9.9 -9.999 -99.9 -99.99 -9.99
2019/12/13 23:12 CST    1.20 -99.99 -999 -999 -999 -99.9 -99.9 -999.9 -9.9 -9.999 -99.9 -99.99 -9.99
2019/12/13 23:18 CST    1.21 -99.99 -999 -999 -999 -99.9 -99.9 -999.9 -9.9 -9.999 -99.9 -99.99 -9.99
2019/12/13 23:24 CST    1.22 -99.99 -999 -999 -999 -99.9 -99.9 -999.9 -9.9 -9.999 -99.9 -99.99 -9.99
2019/12/13 23:30 CST    1.22 -99.99 -999 -999 -999 -99.9 -99.9 -999.9 -9.9 -9.999 -99.9 -99.99 -9.99
2019/12/13 23:36 CST    1.23 -99.99 -999 -999 -999 -99.9 -99.9 -999.9 -9.9 -9.999 -99.9 -99.99 -9.99
2019/12/13 23:42 CST    1.23 -99.99 -999 -999 -999 -99.9 -99.9 -999.9 -9.9 -9.999 -99.9 -99.99 -9.99
2019/12/13 23:48 CST    1.23 -99.99 -999 -999 -999 -99.9 -99.9 -999.9 -9.9 -9.999 -99.9 -99.99 -9.99
2019/12/13 23:54 CST    1.24 -99.99 -999 -999 -999 -99.9 -99.9 -999.9 -9.9 -9.999 -99.9 -99.99 -9.99
2019/12/14 00:00 CST    1.24 -99.99 -999 -999 -999 -99.9 -99.9 -999.9 -9.9 -9.999 -99.9 -99.99 -9.99
2019/12/14 00:06 CST    1.24 -99.99 -999 -999 -999 -99.9 -99.9 -999.9 -9.9 -9.999 -99.9 -99.99 -9.99
2019/12/14 00:12 CST    1.24 -99.99 -999 -999 -999 -99.9 -99.9 -999.9 -9.9 -9.999 -99.9 -99.99 -9.99
2019/12/14 00:18 CST    1.24 -99.99 -999 -999 -999 -99.9 -99.9 -999.9 -9.9 -9.999 -99.9 -99.99 -9.99
2019/12/14 00:24 CST    1.24 -99.99 -999 -999 -999 -99.9 -99.9 -999.9 -9.9 -9.999 -99.9 -99.99 -9.99
2019/12/14 00:30 CST    1.24 -99.99 -999 -999 -999 -99.9 -99.9 -999.9 -9.9 -9.999 -99.9 -99.99 -9.99
2019/12/14 00:36 CST    1.24 -99.99 -999 -999 -999 -99.9 -99.9 -999.9 -9.9 -9.999 -99.9 -99.99 -9.99
2019/12/14 00:42 CST    1.24 -99.99 -999 -999 -999 -99.9 -99.9 -999.9 -9.9 -9.999 -99.9 -99.99 -9.99
2019/12/14 00:48 CST    1.24 -99.99 -999 -999 -999 -99.9 -99.9 -999.9 -9.9 -9.999 -99.9 -99.99 -9.99
2019/12/14 00:54 CST    1.24 -99.99 -999 -999 -999 -99.9 -99.9 -999.9 -9.9 -9.999 -99.9 -99.99 -9.99
2019/12/14 01:00 CST    1.24 -99.99 -999 -999 -999 -99.9 -99.9 -999.9 -9.9 -9.999 -99.9 -99.99 -9.99
2019/12/14 01:06 CST    1.24 -99.99 -999 -999 -999 -99.9 -99.9 -999.9 -9.9 -9.999 -99.9 -99.99 -9.99
2019/12/14 01:12 CST    1.24 -99.99 -999 -999 -999 -99.9 -99.9 -999.9 -9.9 -9.999 -99.9 -99.99 -9.99
2019/12/14 01:18 CST    1.24 -99.99 -999 -999 -999 -99.9 -99.9 -999.9 -9.9 -9.999 -99.9 -99.99 -9.99
2019/12/14 01:24 CST    1.24 -99.99 -999 -999 -999 -99.9 -99.9 -999.9 -9.9 -9.999 -99.9 -99.99 -9.99
2019/12/14 01:30 CST    1.24 -99.99 -999 -999 -999 -99.9 -99.9 -999.9 -9.9 -9.999 -99.9 -99.99 -9.99
2019/12/14 01:36 CST    1.23 -99.99 -999 -999 -999 -99.9 -99.9 -999.9 -9.9 -9.999 -99.9 -99.99 -9.99
2019/12/14 01:42 CST    1.23 -99.99 -999 -999 -999 -99.9 -99.9 -999.9 -9.9 -9.999 -99.9 -99.99 -9.99
2019/12/14 01:48 CST    1.23 -99.99 -999 -999 -999 -99.9 -99.9 -999.9 -9.9 -9.999 -99.9 -99.99 -9.99
2019/12/14 01:54 CST    1.23 -99.99 -999 -999 -999 -99.9 -99.9 -999.9 -9.9 -9.999 -99.9 -99.99 -9.99
2019/12/14 02:00 CST    1.23 -99.99 -999 -999 -999 -99.9 -99.9 -999.9 -9.9 -9.999 -99.9 -99.99 -9.99
2019/12/14 02:06 CST    1.22 -99.99 -999 -999 -999 -99.9 -99.9 -999.9 -9.9 -9.999 -99.9 -99.99 -9.99
2019/12/14 02:12 CST    1.22 -99.99 -999 -999 -999 -99.9 -99.9 -999.9 -9.9 -9.999 -99.9 -99.99 -9.99
2019/12/14 02:18 CST    1.22 -99.99 -999 -999 -999 -99.9 -99.9 -999.9 -9.9 -9.999 -99.9 -99.99 -9.99
2019/12/14 02:24 CST    1.21 -99.99 -999 -999 -999 -99.9 -99.9 -999.9 -9.9 -9.999 -99.9 -99.99 -9.99
2019/12/14 02:30 CST    1.21 -99.99 -999 -999 -999 -99.9 -99.9 -999.9 -9.9 -9.999 -99.9 -99.99 -9.99
2019/12/14 02:36 CST    1.20 -99.99 -999 -999 -999 -99.9 -99.9 -999.9 -9.9 -9.999 -99.9 -99.99 -9.99
2019/12/14 02:42 CST    1.20 -99.99 -999 -999 -999 -99.9 -99.9 -999.9 -9.9 -9.999 -99.9 -99.99 -9.99
2019/12/14 02:48 CST    1.19 -99.99 -999 -999 -999 -99.9 -99.9 -999.9 -9.9 -9.999 -99.9 -99.99 -9.99
2019/12/14 02:54 CST    1.19 -99.99 -999 -999 -999 -99.9 -99.9 -999.9 -9.9 -9.999 -99.9 -99.99 -9.99
2019/12/14 03:00 CST    1.18 -99.99 -999 -999 -999 -99.9 -99.9 -999.9 -9.9 -9.999 -99.9 -99.99 -9.99
2019/12/14 03:06 CST    1.17 -99.99 -999 -999 -999 -99.9 -99.9 -999.9 -9.9 -9.999 -99.9 -99.99 -9.99
2019/12/14 03:12 CST    1.17 -99.99 -999 -999 -999 -99.9 -99.9 -999.9 -9.9 -9.999 -99.9 -99.99 -9.99
2019/12/14 03:18 CST    1.16 -99.99 -999 -999 -999 -99.9 -99.9 -999.9 -9.9 -9.999 -99.9 -99.99 -9.99
2019/12/14 03:24 CST    1.15 -99.99 -999 -999 -999 -99.9 -99.9 -999.9 -9.9 -9.999 -99.9 -99.99 -9.99